CAPE
16 9 7 8 9 8 4 1 5 1 2 13 21 8 3 8 7 0 0 0 0 0 0 0 0 0 0 0 0 0 0 0 0 0 0 0 0 0 0 0 0 0 0 4 300
3 2 1 4 5 6 4 4 3 5 10 6 4 17 16 2 1 0 0 0 0 0 0 0 0 0 0 2 0 0 0 0 0 0 0 0 0 0 0 0 0 0 0 0 269
1 1 9 3 6 4 4 5 4 3 3 5 8 8 27 8 0 0 0 0 0 6 0 0 0 0 2 3 1 0 0 0 0 0 0 0 0 0 0 0 0 0 0 6 173
0 0 1 3 7 5 5 5 4 4 4 4 9 5 5 12 0 0 0 0 0 0 0 2 5 3 1 0 1 1 0 0 0 0 0 0 0 0 0 0 0 0 0 37 186
6 5 0 4 4 3 2 2 1 2 2 2 5 5 13 9 0 0 0 0 1 4 0 0 1 1 0 0 0 2 0 0 0 0 0 0 0 0 0 0 0 0 0 0 129
1 5 6 5 4 4 2 1 0 0 0 0 4 13 6 0 0 0 0 0 0 3 0 0 0 0 0 0 0 3 0 0 0 0 0 0 0 0 0 0 0 0 0 0 62
7 8 9 11 10 6 3 0 0 0 0 0 7 6 3 0 0 0 0 0 0 14 1 0 0 0 0 1 0 0 2 1 0 0 0 0 0 0 0 0 0 0 0 0 5
16 13 9 9 11 8 0 0 0 0 0 1 4 3 0 0 0 0 0 0 0 0 42 37 40 19 15 11 23 11 8 1 0 0 0 0 0 0 0 0 0 0 0 0 0
9 2 8 4 5 2 1 0 0 0 1 2 2 1 0 0 0 0 0 0 0 0 0 67 45 25 13 16 13 17 3 0 1 0 0 5 0 0 0 0 0 0 0 0 0
17 23 18 17 4 0 0 0 0 2 1 4 0 0 0 0 0 0 0 0 0 0 0 33 87 11 6 23 0 3 0 1 1 0 0 0 0 0 0 0 0 0 0 0 0
25 20 23 18 11 0 0 0 0 0 0 0 0 0 0 0 0 0 0 0 3 0 2 14 12 0 9 1 2 3 4 1 5 0 1 0 0 0 0 0 0 0 1 2 0
32 12 12 25 12 0 0 0 2 1 0 0 0 0 0 0 0 0 0 0 2 0 4 30 1 0 9 24 12 16 6 1 1 0 1 0 0 0 0 0 0 0 0 0 0
29 24 12 21 0 0 0 0 0 0 0 0 0 0 0 0 0 0 14 3 0 0 0 0 0 3 10 13 16 9 8 0 1 5 0 0 0 0 0 0 0 0 0 0 0
20 17 11 34 0 0 0 0 0 0 0 0 0 0 0 0 0 0 0 14 25 1 0 5 0 1 13 26 42 6 4 3 5 0 0 2 0 0 0 0 0 0 0 0 0
19 1 11 25 0 0 0 0 0 0 0 0 0 0 0 0 1 0 0 15 13 25 11 0 2 32 26 0 24 1 9 7 2 0 4 0 0 0 0 0 0 0 0 0 0
12 0 17 0 0 0 0 0 1 4 0 0 0 0 0 0 0 1 1 5 26 12 9 0 0 11 4 1 4 2 22 15 7 3 4 0 0 0 0 0 0 0 0 0 0
0 3 6 0 0 0 0 0 0 0 0 0 0 0 0 0 1 0 1 0 1 2 0 15 0 3 17 22 23 20 17 9 5 5 0 0 0 0 0 0 0 0 0 0 0
3 0 0 0 0 0 0 0 0 0 0 0 0 0 15 0 0 0 0 32 0 0 0 0 0 0 0 0 0 0 3 0 0 0 0 0 0 0 0 0 0 0 0 0 0
0 0 0 0 0 0 0 0 0 0 0 0 0 0 0 0 0 0 0 0 0 0 0 4 0 0 0 0 0 0 8 0 4 2 0 0 0 0 0 0 0 0 0 0 0
0 0 0 0 0 0 0 0 0 0 0 0 0 0 0 0 0 0 0 0 0 0 0 0 3 0 0 0 0 1 0 1 6 0 0 0 0 0 0 0 0 0 0 0 0
0 0 0 0 0 0 0 0 0 0 0 0 0 0 0 0 0 0 0 0 0 0 0 0 0 1 0 0 0 0 0 2 0 0 1 0 0 0 0 0 0 0 0 0 0
2 0 0 0 0 0 0 0 1 0 0 0 1 0 0 0 0 0 0 0 0 0 0 0 0 0 0 0 0 0 0 0 0 0 0 1 0 0 0 0 0 0 0 0 0
0 0 0 0 0 0 0 0 0 0 0 0 0 0 0 0 0 0 0 0 0 0 0 0 0 0 0 0 0 0 0 0 5 3 1 0 0 0 0 0 0 0 0 0 0
0 0 0 0 0 0 0 0 0 0 0 0 0 0 0 0 0 0 0 0 0 0 2 0 2 0 0 0 0 0 0 0 0 0 0 0 0 0 0 0 0 0 0 0 0
0 0 1 0 0 0 0 0 0 0 0 0 0 0 0 0 0 0 0 0 0 0 0 0 0 0 0 0 0 0 0 0 1 0 0 0 0 0 0 0 0 0 0 0 0
0 0 0 0 0 0 0 0 0 0 0 0 0 0 0 0 0 0 0 0 0 0 0 0 0 0 0 0 0 0 0 0 0 0 0 0 0 0 0 0 0 0 0 0 0
25 11 17 0 0 0 0 0 0 0 0 0 0 0 0 0 0 0 0 0 0 0 0 0 0 0 0 0 0 0 0 0 0 0 0 0 0 0 0 0 0 0 0 0 0
CIN
-1 -0 -1 -1 -0 -0 -1 -0 -0 -1 -3 -1 -0 -0 -2 -1 -0 -0 -0 -0 -0 -0 -0 -0 -0 -0 -0 -0 -0 -0 -0 -0 -0 -0 -0 -0 -0 -0 -0 -0 -0 -0 -0 -97 -209
-0 -1 -1 -1 -0 -1 -1 -0 -1 -1 -0 -0 -1 -2 -1 -1 -0 -0 -0 -0 -0 -0 -0 -0 -0 -0 -0 -1 -0 -0 -0 -0 -0 -0 -0 -0 -0 -0 -0 -0 -0 -0 -0 -0 -165
-0 -0 -0 -1 -0 -1 -0 -0 -0 -0 -0 -0 -0 -2 -2 -1 -0 -0 -0 -0 -0 -0 -0 -0 -0 -0 -0 -2 -2 -0 -0 -0 -0 -0 -0 -0 -0 -0 -0 -0 -0 -0 -0 -316 -162
-1 -1 -1 -1 -0 -0 -1 -0 -0 -0 -0 -0 -0 -0 -4 -3 -0 -0 -0 -0 -0 -0 -0 -0 -2 -0 -2 -0 -6 -0 -0 -0 -0 -0 -0 -0 -0 -0 -0 -0 -0 -0 -0 -235 -152
-1 -0 -1 -0 -0 -0 -0 -1 -0 -0 -0 -1 -1 -0 -2 -0 -0 -0 -0 -0 -1 -3 -0 -0 -0 -0 -0 -0 -0 -5 -0 -0 -0 -0 -0 -0 -0 -0 -0 -0 -0 -0 -0 -0 -150
-1 -0 -1 -1 -0 -0 -0 -0 -1 -0 -0 -0 -0 -0 -0 -0 -0 -0 -0 -0 -1 -3 -0 -0 -0 -0 -0 -0 -0 -5 -0 -0 -0 -0 -0 -0 -0 -0 -0 -0 -0 -0 -0 -0 -112
-0 -0 -1 -0 -0 -1 -0 -0 -0 -0 -0 -0 -0 -0 -0 -0 -0 -0 -0 -0 -0 -4 -0 -0 -0 -0 -0 -1 -0 -0 -0 -1 -2 -0 -0 -0 -0 -0 -0 -0 -0 -0 -0 -0 -85
-1 -0 -1 -0 -1 -1 -0 -0 -0 -0 -0 -0 -0 -1 -0 -0 -0 -0 -0 -0 -0 -0 -0 -22 -17 -8 -6 -11 -3 -2 -0 -2 -0 -0 -0 -0 -0 -0 -0 -0 -0 -0 -0 -0 -0
-1 -1 -1 -0 -1 -1 -0 -0 -0 -0 -0 -2 -0 -1 -0 -0 -0 -0 -0 -0 -0 -0 -0 -5 -7 -0 -3 -0 -0 -0 -0 -0 -0 -0 -0 -2 -0 -0 -0 -0 -0 -0 -0 -0 -0
-1 -1 -1 -0 -0 -0 -0 -0 -0 -1 -8 -0 -1 -0 -0 -0 -0 -0 -0 -0 -0 -0 -0 -1 -0 -0 -1 -1 -0 -3 -0 -0 -1 -0 -0 -0 -0 -0 -0 -0 -0 -0 -0 -0 -0
-1 -0 -0 -0 -0 -0 -0 -0 -0 -0 -0 -0 -0 -0 -0 -0 -0 -0 -0 -0 -0 -0 -0 -0 -0 -0 -0 -4 -2 -0 -2 -1 -2 -0 -2 -0 -0 -0 -0 -0 -0 -0 -16 -78 -0
-0 -1 -1 -0 -0 -0 -0 -0 -0 -1 -0 -0 -0 -0 -0 -0 -0 -0 -0 -0 -0 -0 -0 -1 -0 -0 -1 -0 -0 -1 -2 -2 -1 -2 -1 -0 -0 -0 -0 -0 -0 -0 -0 -0 -9
-0 -0 -4 -0 -0 -0 -0 -0 -0 -0 -0 -0 -0 -0 -0 -0 -0 -0 -5 -16 -0 -0 -0 -0 -0 -0 -1 -2 -0 -0 -0 -4 -0 -4 -0 -0 -0 -0 -0 -0 -0 -0 -0 -0 -0
-1 -1 -10 -0 -0 -0 -0 -0 -0 -0 -0 -0 -0 -0 -0 -4 -0 -0 -0 -0 -2 -0 -0 -0 -0 -4 -0 -0 -0 -6 -9 -10 -2 -0 -0 -2 -0 -0 -0 -0 -0 -0 -0 -39 -0
-1 -10 -14 -2 -0 -0 -0 -0 -0 -0 -0 -0 -0 -1 -0 -0 -0 -0 -0 -0 -0 -1 -2 -0 -0 -0 -1 -1 -14 -1 -12 -5 -8 -2 -1 -4 -0 -0 -0 -0 -0 -0 -0 -0 -0
-1 -4 -9 -0 -0 -0 -0 -0 -1 -1 -0 -0 -0 -0 -0 -0 -0 -1 -10 -1 -0 -1 -1 -0 -0 -7 -18 -24 -22 -11 -2 -3 -2 -5 -4 -0 -1 -0 -0 -0 -0 -0 -0 -0 -0
-0 -32 -18 -0 -0 -0 -0 -0 -0 -0 -0 -0 -0 -0 -0 -0 -0 -0 -0 -20 -0 -2 -0 -13 -0 -20 -15 -8 -25 -7 -3 -22 -6 -1 -0 -0 -0 -0 -0 -0 -0 -0 -0 -0 -0
-6 -0 -0 -0 -0 -0 -0 -0 -0 -0 -0 -0 -0 -0 -0 -0 -0 -0 -0 -4 -0 -0 -0 -0 -0 -0 -0 -1 -0 -0 -5 -0 -8 -0 -0 -0 -0 -0 -0 -0 -0 -0 -0 -0 -0
-0 -0 -0 -0 -0 -0 -0 -0 -0 -1 -0 -0 -0 -0 -0 -0 -0 -0 -0 -0 -0 -0 -0 -6 -0 -0 -0 -0 -0 -0 -4 -0 -6 -20 -0 -0 -0 -0 -0 -0 -0 -0 -0 -0 -0
-0 -0 -0 -0 -0 -0 -0 -0 -0 -0 -0 -0 -0 -5 -0 -0 -0 -0 -0 -0 -0 -0 -0 -0 -12 -0 -0 -20 -5 -1 -2 -6 -3 -1 -0 -0 -0 -0 -0 -0 -0 -0 -0 -0 -0
-0 -0 -0 -0 -0 -0 -0 -0 -0 -0 -0 -0 -0 -0 -0 -0 -0 -0 -0 -0 -0 -0 -0 -0 -0 -8 -0 -0 -0 -2 -0 -2 -0 -3 -1 -2 -0 -0 -0 -0 -0 -0 -0 -0 -0
-2 -0 -0 -0 -0 -0 -0 -0 -16 -0 -0 -0 -33 -18 -0 -0 -0 -0 -0 -0 -0 -0 -0 -0 -0 -0 -0 -0 -0 -0 -0 -0 -4 -0 -0 -13 -0 -0 -0 -0 -0 -0 -0 -0 -0
-0 -0 -0 -0 -0 -0 -0 -0 -0 -0 -23 -0 -0 -3 -0 -0 -0 -0 -0 -0 -0 -0 -0 -0 -0 -0 -0 -0 -0 -0 -0 -0 -4 -14 -1 -0 -0 -0 -0 -0 -0 -0 -0 -0 -0
-0 -0 -0 -0 -0 -0 -0 -0 -0 -0 -0 -0 -0 -11 -0 -0 -0 -0 -0 -0 -0 -0 -2 -0 -1 -0 -0 -0 -0 -0 -0 -5 -0 -3 -0 -0 -0 -0 -0 -0 -0 -0 -0 -0 -0
-0 -4 -0 -0 -0 -0 -0 -0 -0 -0 -0 -0 -0 -0 -0 -0 -0 -0 -0 -0 -0 -0 -0 -0 -0 -0 -0 -0 -0 -0 -0 -0 -19 -0 -0 -0 -0 -0 -0 -0 -0 -0 -0 -0 -0
-1 -1 -0 -0 -0 -0 -0 -0 -0 -0 -0 -0 -0 -0 -0 -3 -0 -0 -0 -0 -0 -0 -0 -0 -0 -0 -0 -0 -1 -0 -0 -0 -0 -0 -0 -0 -0 -0 -0 -0 -0 -0 -0 -0 -0
-2 -4 -2 -0 -1 -0 -0 -0 -0 -0 -0 -0 -0 -0 -0 -0 -0 -0 -0 -0 -0 -0 -0 -0 -0 -0 -0 -0 -0 -0 -0 -0 -0 -0 -0 -0 -0 -0 -0 -0 -0 -0 -0 -0 -0
Wind_Speed
34 35 35 36 36 37 37 38 38 39 38 37 36 36 36 36 36 33 28 18 16 9 13 11 13 13 15 16 16 15 21 23 25 25 24 20 23 21 24 27 27 28 27 23 17
35 35 36 36 37 37 38 38 38 38 38 39 39 38 37 38 38 33 26 20 14 10 11 10 13 11 16 17 17 16 23 23 19 22 26 23 20 20 23 23 27 29 30 24 18
35 36 37 38 38 39 40 40 40 40 40 40 40 40 39 38 35 27 24 15 9 5 10 12 12 14 19 18 18 20 25 22 22 22 25 26 23 20 22 25 24 27 31 25 22
37 38 39 40 41 42 43 43 43 43 43 42 41 39 38 31 31 20 22 20 7 8 12 14 16 20 24 23 20 29 26 27 26 23 24 27 25 25 23 27 21 22 30 28 26
39 40 41 43 44 45 46 46 46 45 44 42 39 37 34 29 27 23 28 23 14 14 17 18 21 22 28 26 24 29 31 30 28 26 25 27 29 30 30 29 26 27 30 31 29
40 42 44 45 46 48 49 49 49 49 46 42 37 34 32 35 28 26 29 27 23 19 21 19 24 22 28 30 29 28 29 32 31 29 27 29 31 30 27 27 30 32 32 35 34
41 44 45 47 49 51 52 54 55 49 45 39 33 31 36 35 26 26 21 24 24 22 24 21 22 22 26 34 32 34 39 38 33 30 29 28 33 32 32 30 30 33 32 36 38
43 45 47 50 51 52 55 57 50 50 44 35 26 26 39 29 22 26 23 24 23 25 24 21 20 26 28 27 29 30 34 39 31 26 29 23 31 27 26 27 29 30 32 34 39
44 46 49 50 51 53 56 52 52 41 33 27 24 25 42 25 24 21 16 22 24 22 23 21 23 30 28 33 37 34 41 38 39 27 27 24 37 30 29 26 30 31 30 32 38
43 45 47 49 50 54 53 55 41 30 28 24 25 30 29 28 22 21 18 16 20 21 24 24 25 30 30 31 38 36 40 40 38 29 24 29 35 34 29 25 29 28 30 35 38
43 45 47 50 51 54 53 42 41 38 36 37 35 38 36 28 27 27 21 16 19 23 28 25 31 35 33 32 34 35 35 39 33 28 33 34 34 37 33 33 32 27 26 32 43
47 46 47 50 51 47 46 40 39 40 57 44 41 41 39 37 42 30 17 24 25 32 26 29 38 32 31 31 32 37 40 42 38 30 33 37 40 42 36 32 30 28 25 31 42
48 47 49 50 51 40 46 37 35 39 48 55 42 41 38 28 38 37 23 25 29 32 31 36 35 33 32 32 32 35 39 40 42 37 36 38 44 41 43 35 30 26 24 30 45
47 47 48 51 42 44 45 35 38 33 50 54 40 33 30 27 32 23 19 23 28 33 29 34 33 31 30 36 30 39 29 31 33 35 41 26 45 34 36 33 28 24 26 33 40
47 48 48 47 43 45 40 40 39 28 59 36 31 23 40 30 38 24 18 18 30 26 23 33 29 33 36 32 30 35 29 34 37 42 42 38 39 46 40 35 21 21 25 36 33
48 47 47 42 39 35 37 42 31 40 52 39 31 43 45 38 32 26 23 15 20 28 26 28 23 24 29 28 27 29 31 29 32 34 46 34 34 54 49 33 20 19 23 38 31
48 45 45 37 40 34 38 39 44 44 41 41 43 47 40 38 35 29 28 19 22 27 31 26 30 27 26 28 29 31 28 33 37 38 44 32 35 56 32 30 25 28 26 33 30
47 44 37 33 30 29 37 41 44 38 39 39 42 40 31 33 33 34 30 28 22 25 28 33 39 24 23 28 28 32 33 34 37 38 42 34 44 48 39 42 41 36 34 34 31
44 39 36 30 29 30 37 43 38 37 35 40 41 33 32 35 31 30 27 25 18 20 31 29 33 23 23 26 25 28 37 27 36 32 36 33 36 37 37 31 24 25 37 35 29
43 40 33 28 28 30 35 38 32 27 31 30 32 30 34 31 31 31 25 19 22 26 29 27 30 24 23 22 25 27 22 29 32 39 47 39 40 39 34 28 24 24 34 35 28
40 43 30 29 27 31 36 30 28 23 30 26 29 29 26 31 31 29 27 27 26 30 28 28 30 22 17 23 22 25 27 26 27 37 38 35 30 20 14 13 14 16 27 36 39
38 46 30 29 37 29 30 27 25 27 24 22 23 24 29 33 29 26 28 27 27 29 26 23 24 30 29 20 20 21 26 27 33 37 43 35 32 11 13 15 17 20 23 28 38
41 37 28 27 36 32 27 25 23 26 23 25 24 23 30 29 29 28 28 29 30 30 25 23 24 27 19 22 19 28 30 29 39 30 40 41 41 32 26 26 29 27 24 26 28
36 42 33 28 24 27 28 25 28 22 24 20 23 28 28 32 28 31 34 30 31 27 21 21 23 24 29 30 32 33 32 37 40 45 47 45 29 27 26 29 27 24 25 25 24
32 35 32 35 30 25 23 23 25 25 20 24 28 25 29 31 34 31 34 35 30 28 26 24 29 28 29 30 32 35 33 35 41 44 42 44 47 40 34 25 22 25 24 23 20
34 35 28 30 25 23 23 20 23 23 22 27 28 33 30 32 34 37 35 34 34 31 32 30 30 33 30 26 26 34 37 36 36 44 47 46 48 34 31 24 32 32 28 21 17
26 25 26 28 24 23 22 18 21 24 23 20 27 35 34 35 33 35 36 39 42 44 41 35 31 30 32 29 30 27 18 22 29 30 36 46 41 32 38 38 33 31 29 17 14
Wind_Direction
347 346 343 339 336 335 330 327 320 312 304 307 310 310 306 304 303 310 310 315 320 310 329 328 319 319 322 315 316 317 303 301 299 298 300 299 286 284 281 269 264 260 265 269 249
346 346 344 341 338 335 332 327 322 316 307 303 304 308 312 306 307 309 310 308 300 301 309 310 309 312 308 311 310 299 297 300 304 304 299 299 294 290 281 271 263 258 261 259 244
347 344 341 338 336 333 327 322 318 313 312 309 308 308 310 313 312 315 320 323 303 306 308 311 310 306 299 302 299 300 292 297 302 307 302 296 292 289 281 273 267 255 257 248 243
345 342 339 334 329 326 323 319 315 313 312 311 311 312 310 314 307 323 326 321 296 287 294 297 297 295 295 289 293 291 293 291 297 303 299 293 293 286 277 275 279 267 259 247 241
341 338 335 330 328 325 322 319 318 317 315 314 314 313 313 304 299 308 310 313 298 286 276 277 280 286 286 290 287 286 290 291 292 293 293 293 286 285 281 276 273 270 260 247 239
342 337 334 331 328 326 323 321 318 315 314 314 313 312 308 292 307 304 299 296 289 277 274 271 282 279 290 283 280 294 289 288 290 290 292 289 287 283 286 280 269 266 260 250 241
340 337 334 331 328 325 322 319 314 316 316 314 312 308 299 291 309 309 304 296 286 275 275 271 277 274 286 286 282 283 283 284 284 288 289 293 282 277 282 277 272 263 261 250 242
340 337 335 331 330 327 324 320 321 318 317 318 313 309 302 313 304 286 287 292 294 287 273 271 269 276 278 286 289 284 281 279 287 282 284 283 280 288 284 273 269 265 262 252 244
340 338 336 334 333 330 327 327 322 324 325 325 318 310 306 324 316 309 284 276 285 281 280 271 272 271 277 271 277 277 276 277 282 284 287 273 284 288 282 275 269 262 258 255 246
341 340 340 339 337 333 332 327 327 329 330 332 322 311 311 314 320 320 313 286 281 280 275 268 272 270 265 263 261 271 276 277 277 288 282 278 280 284 284 278 272 263 257 251 247
343 341 339 337 337 335 335 335 328 320 321 310 310 303 309 315 313 307 308 293 281 269 259 258 260 251 256 258 269 271 276 276 280 286 284 281 280 282 280 274 271 268 254 249 245
340 340 339 338 337 336 339 334 331 322 311 307 300 295 293 302 298 298 297 286 273 265 257 261 251 255 265 264 263 267 270 273 281 285 285 284 282 279 277 273 269 261 252 247 244
339 339 337 336 335 339 336 332 337 333 313 311 310 307 307 303 292 285 275 280 276 267 255 251 271 257 261 264 258 264 267 273 276 283 285 286 282 278 272 271 269 259 246 248 240
342 341 339 337 339 338 334 339 339 337 316 316 316 321 323 316 307 313 265 266 274 269 259 261 254 270 254 258 256 265 268 276 279 280 278 285 282 278 273 269 260 249 245 248 243
343 341 340 340 335 335 337 339 338 336 316 330 329 345 330 314 312 315 314 260 266 270 259 263 264 251 261 255 256 268 271 273 276 275 278 274 282 275 270 269 258 238 237 249 243
344 341 340 341 340 339 341 339 342 324 316 323 329 325 322 320 315 312 313 297 279 273 263 258 275 260 253 264 259 270 270 273 273 273 269 270 272 259 259 271 262 254 250 249 242
345 343 341 344 338 344 345 343 331 321 329 327 322 324 322 319 316 314 304 280 278 275 267 274 255 265 265 260 261 258 260 264 266 264 269 275 266 238 272 281 267 266 261 254 243
345 344 347 348 350 352 348 341 331 330 328 329 329 325 323 332 316 316 307 292 277 275 279 267 265 254 257 250 257 253 251 258 264 265 270 265 262 255 276 273 269 273 264 256 245
348 349 350 356 358 356 347 338 335 337 338 335 333 327 322 320 318 308 305 316 304 313 279 267 265 268 257 258 245 254 249 250 264 271 269 265 265 271 273 283 280 271 260 257 247
349 349 351 359 358 355 345 339 341 348 348 345 341 340 325 323 315 294 290 300 300 315 304 270 266 262 260 252 253 252 257 248 251 256 252 259 259 263 279 292 294 279 257 250 250
352 349 355 359 359 352 344 346 349 355 349 351 343 339 338 329 313 296 279 286 301 303 306 278 263 261 251 252 248 249 250 253 256 251 250 254 263 291 306 319 332 305 263 256 252
352 346 356 360 347 352 351 352 353 351 355 355 350 346 336 324 312 297 282 276 281 294 293 293 262 262 247 265 255 252 250 247 249 247 246 255 254 293 319 318 321 307 297 281 255
348 347 360 4 348 348 353 354 356 355 355 349 347 344 330 327 311 296 288 278 289 291 283 295 270 261 249 255 269 258 254 252 248 256 245 244 249 272 279 290 293 296 302 300 273
351 346 353 358 2 350 349 351 350 357 349 352 340 333 328 315 309 292 283 282 287 282 285 290 269 263 252 260 266 258 259 249 245 243 240 240 260 263 276 294 292 290 298 305 291
354 350 353 348 348 348 348 346 350 350 354 346 337 335 325 317 298 293 291 285 281 269 273 282 260 261 265 267 262 258 257 255 245 242 243 247 242 254 273 289 300 295 297 302 303
351 350 352 343 349 352 350 352 348 350 347 338 332 321 320 308 291 283 288 285 273 271 267 269 261 264 260 268 271 261 257 255 253 246 246 248 242 268 280 291 286 283 282 291 297
356 353 349 346 346 347 347 351 349 347 347 347 333 315 314 309 306 286 285 281 271 264 263 256 258 258 251 270 269 258 266 272 263 260 251 239 231 268 258 265 268 272 261 291 295